TimeEDT,TemperatureF,Dew PointF,Humidity,Sea Level PressureIn,VisibilityMPH,Wind Direction,Wind SpeedMPH,Gust SpeedMPH,PrecipitationIn,Events,Conditions,WindDirDegrees,DateUTC
12:58 AM,59.9,59.5,99,30.29,4.0,Calm,Calm,-,N/A,,Clear,0,2013-08-18 04:58:00
1:16 AM,57.2,57.2,100,30.26,2.5,NE,3.5,-,N/A,,Clear,40,2013-08-18 05:16:00
1:17 AM,57.2,57.2,100,30.26,2.0,NE,3.5,-,N/A,,Clear,40,2013-08-18 05:17:00
1:19 AM,57.2,57.2,100,30.26,1.8,NE,3.5,-,N/A,,Clear,50,2013-08-18 05:19:00
1:24 AM,57.2,57.2,100,30.26,2.0,NNE,3.5,-,N/A,,Clear,30,2013-08-18 05:24:00
1:25 AM,57.2,57.2,100,30.26,2.5,NNE,3.5,-,N/A,,Clear,20,2013-08-18 05:25:00
1:27 AM,57.2,57.2,100,30.26,3.0,NNE,3.5,-,N/A,,Clear,20,2013-08-18 05:27:00
1:58 AM,57.0,56.7,99,30.28,8.0,NNE,3.5,-,N/A,,Partly Cloudy,30,2013-08-18 05:58:00
2:14 AM,57.2,55.4,94,30.26,1.8,NNE,3.5,-,N/A,,Clear,30,2013-08-18 06:14:00
2:15 AM,57.2,55.4,94,30.26,1.2,NNE,3.5,-,N/A,,Clear,30,2013-08-18 06:15:00
2:16 AM,57.2,55.4,94,30.26,1.0,NNE,3.5,-,N/A,,Clear,30,2013-08-18 06:16:00
2:17 AM,57.2,55.4,94,30.26,1.0,NNE,3.5,-,N/A,,Clear,30,2013-08-18 06:17:00
2:19 AM,57.2,55.4,94,30.26,1.0,NNE,3.5,-,N/A,,Clear,30,2013-08-18 06:19:00
2:20 AM,57.2,55.4,94,30.26,0.8,NNE,3.5,-,N/A,,Clear,30,2013-08-18 06:20:00
2:21 AM,55.4,55.4,100,30.26,0.8,NE,3.5,-,N/A,,Clear,40,2013-08-18 06:21:00
2:25 AM,55.4,55.4,100,30.26,1.0,NE,3.5,-,N/A,,Clear,40,2013-08-18 06:25:00
2:27 AM,55.4,55.4,100,30.26,1.0,NE,3.5,-,N/A,,Clear,40,2013-08-18 06:27:00
2:29 AM,55.4,55.4,100,30.26,1.0,NE,3.5,-,N/A,,Clear,40,2013-08-18 06:29:00
2:30 AM,55.4,55.4,100,30.26,1.2,NE,3.5,-,N/A,,Clear,40,2013-08-18 06:30:00
2:31 AM,57.2,55.4,94,30.26,1.5,NE,3.5,-,N/A,,Clear,50,2013-08-18 06:31:00
2:32 AM,57.2,55.4,94,30.26,1.8,NE,3.5,-,N/A,,Clear,50,2013-08-18 06:32:00
2:33 AM,57.2,55.4,94,30.26,2.0,NE,3.5,-,N/A,,Clear,50,2013-08-18 06:33:00
2:34 AM,57.2,55.4,94,30.26,3.0,NE,3.5,-,N/A,,Clear,50,2013-08-18 06:34:00
2:58 AM,56.7,56.5,99,30.28,10.0,NNE,1.2,-,N/A,,Clear,20,2013-08-18 06:58:00
3:11 AM,55.4,55.4,100,30.26,2.5,NE,2.3,-,N/A,,Clear,50,2013-08-18 07:11:00
3:13 AM,55.4,55.4,100,30.26,2.0,NE,2.3,-,N/A,,Clear,50,2013-08-18 07:13:00
3:19 AM,57.2,55.4,94,30.26,2.5,NE,2.3,-,N/A,,Clear,50,2013-08-18 07:19:00
3:20 AM,55.4,55.4,100,30.26,3.0,NE,2.3,-,N/A,,Clear,50,2013-08-18 07:20:00
3:22 AM,55.4,55.4,100,30.26,2.5,NE,2.3,-,N/A,,Clear,40,2013-08-18 07:22:00
3:23 AM,55.4,55.4,100,30.26,1.5,NE,2.3,-,N/A,,Clear,40,2013-08-18 07:23:00
3:24 AM,55.4,55.4,100,30.26,1.2,NNE,2.3,-,N/A,,Clear,30,2013-08-18 07:24:00
3:25 AM,55.4,55.4,100,30.26,1.0,NNE,2.3,-,N/A,,Clear,30,2013-08-18 07:25:00
3:26 AM,55.4,55.4,100,30.26,0.8,NNE,2.3,-,N/A,,Clear,20,2013-08-18 07:26:00
3:27 AM,55.4,55.4,100,30.26,0.8,NNE,3.5,-,N/A,,Clear,20,2013-08-18 07:27:00
3:31 AM,55.4,55.4,100,30.27,0.8,North,2.3,-,N/A,,Clear,350,2013-08-18 07:31:00
3:32 AM,57.2,55.4,94,30.27,1.0,North,2.3,-,N/A,,Clear,350,2013-08-18 07:32:00
3:33 AM,57.2,57.2,100,30.27,1.2,NNW,2.3,-,N/A,,Clear,340,2013-08-18 07:33:00
3:34 AM,57.2,57.2,100,30.27,1.8,NNW,2.3,-,N/A,,Clear,340,2013-08-18 07:34:00
3:35 AM,57.2,57.2,100,30.27,2.5,North,2.3,-,N/A,,Clear,350,2013-08-18 07:35:00
3:36 AM,57.2,57.2,100,30.27,4.0,North,2.3,-,N/A,,Clear,360,2013-08-18 07:36:00
3:58 AM,56.5,56.3,99,30.29,9.0,NNE,3.5,-,N/A,,Clear,30,2013-08-18 07:58:00
4:03 AM,55.4,55.4,100,30.27,2.5,NNE,3.5,-,N/A,,Clear,30,2013-08-18 08:03:00
4:05 AM,55.4,55.4,100,30.26,2.0,NNE,3.5,-,N/A,,Clear,30,2013-08-18 08:05:00
4:07 AM,55.4,55.4,100,30.26,1.8,NNE,2.3,-,N/A,,Clear,30,2013-08-18 08:07:00
4:08 AM,55.4,55.4,100,30.26,1.5,NE,2.3,-,N/A,,Clear,40,2013-08-18 08:08:00
4:09 AM,55.4,55.4,100,30.26,1.5,NE,2.3,-,N/A,,Clear,40,2013-08-18 08:09:00
4:12 AM,55.4,55.4,100,30.26,1.8,NE,2.3,-,N/A,,Clear,40,2013-08-18 08:12:00
4:14 AM,57.2,55.4,94,30.26,2.0,NNE,2.3,-,N/A,,Clear,30,2013-08-18 08:14:00
4:16 AM,57.2,57.2,100,30.26,2.5,NNE,2.3,-,N/A,,Clear,20,2013-08-18 08:16:00
4:18 AM,57.2,57.2,100,30.26,3.0,NNE,3.5,-,N/A,,Clear,20,2013-08-18 08:18:00
4:22 AM,57.2,57.2,100,30.27,2.5,NNE,3.5,-,N/A,,Clear,20,2013-08-18 08:22:00
4:23 AM,57.2,57.2,100,30.27,2.0,NNE,3.5,-,N/A,,Clear,20,2013-08-18 08:23:00
4:25 AM,57.2,57.2,100,30.26,1.8,NNE,3.5,-,N/A,,Clear,30,2013-08-18 08:25:00
4:26 AM,57.2,57.2,100,30.26,1.5,NNE,2.3,-,N/A,,Clear,30,2013-08-18 08:26:00
4:29 AM,57.2,55.4,94,30.26,1.5,NNE,3.5,-,N/A,,Clear,30,2013-08-18 08:29:00
4:31 AM,55.4,55.4,100,30.26,1.5,NNE,3.5,-,N/A,,Clear,30,2013-08-18 08:31:00
4:35 AM,55.4,55.4,100,30.26,1.2,NNE,3.5,-,N/A,,Clear,20,2013-08-18 08:35:00
4:36 AM,55.4,55.4,100,30.26,1.0,NNE,3.5,-,N/A,,Clear,20,2013-08-18 08:36:00
4:37 AM,55.4,55.4,100,30.26,1.0,NNE,4.6,-,N/A,,Clear,20,2013-08-18 08:37:00
4:38 AM,55.4,55.4,100,30.26,0.8,NNE,4.6,-,N/A,,Clear,20,2013-08-18 08:38:00
4:39 AM,55.4,55.4,100,30.26,0.8,NNE,4.6,-,N/A,,Clear,20,2013-08-18 08:39:00
4:40 AM,55.4,55.4,100,30.26,0.5,NNE,4.6,-,N/A,Fog,Fog,30,2013-08-18 08:40:00
4:48 AM,55.4,55.4,100,30.26,0.8,North,2.3,-,N/A,,Clear,10,2013-08-18 08:48:00
4:50 AM,55.4,55.4,100,30.27,1.0,North,2.3,-,N/A,,Clear,10,2013-08-18 08:50:00
4:51 AM,55.4,55.4,100,30.27,1.0,North,2.3,-,N/A,,Clear,360,2013-08-18 08:51:00
4:52 AM,55.4,55.4,100,30.26,1.2,North,2.3,-,N/A,,Clear,360,2013-08-18 08:52:00
4:53 AM,55.4,55.4,100,30.26,1.2,North,2.3,-,N/A,,Clear,360,2013-08-18 08:53:00
4:54 AM,55.4,55.4,100,30.26,1.5,North,2.3,-,N/A,,Clear,360,2013-08-18 08:54:00
4:55 AM,55.4,55.4,100,30.26,1.8,North,2.3,-,N/A,,Clear,360,2013-08-18 08:55:00
4:56 AM,55.4,55.4,100,30.26,2.0,North,2.3,-,N/A,,Clear,10,2013-08-18 08:56:00
4:57 AM,55.4,55.4,100,30.26,2.5,North,2.3,-,N/A,,Clear,10,2013-08-18 08:57:00
4:58 AM,55.4,55.4,100,30.28,3.0,NNE,2.3,-,N/A,,Clear,20,2013-08-18 08:58:00
5:38 AM,55.4,55.4,100,30.26,2.5,NNE,2.3,-,N/A,,Clear,20,2013-08-18 09:38:00
5:39 AM,55.4,55.4,100,30.26,1.8,NNE,2.3,-,N/A,,Clear,20,2013-08-18 09:39:00
5:40 AM,55.4,55.4,100,30.26,1.2,NNE,2.3,-,N/A,,Clear,20,2013-08-18 09:40:00
5:41 AM,55.4,53.6,94,30.26,1.0,NNE,2.3,-,N/A,,Clear,20,2013-08-18 09:41:00
5:42 AM,55.4,53.6,94,30.26,1.0,NNE,1.2,-,N/A,,Clear,20,2013-08-18 09:42:00
5:43 AM,53.6,53.6,100,30.26,0.8,NNE,1.2,-,N/A,,Clear,20,2013-08-18 09:43:00
5:44 AM,53.6,53.6,100,30.26,0.8,NNE,1.2,-,N/A,,Clear,20,2013-08-18 09:44:00
5:45 AM,53.6,53.6,100,30.26,0.8,NNE,1.2,-,N/A,,Clear,20,2013-08-18 09:45:00
5:46 AM,53.6,53.6,100,30.26,0.5,North,1.2,-,N/A,Fog,Fog,10,2013-08-18 09:46:00
5:51 AM,55.4,53.6,94,30.27,0.8,North,1.2,-,N/A,,Clear,360,2013-08-18 09:51:00
5:55 AM,55.4,55.4,100,30.27,0.8,NNW,1.2,-,N/A,,Clear,330,2013-08-18 09:55:00
5:56 AM,55.4,55.4,100,30.27,0.8,NNW,1.2,-,N/A,,Clear,330,2013-08-18 09:56:00
5:57 AM,55.4,55.4,100,30.27,0.8,NNW,1.2,-,N/A,,Clear,330,2013-08-18 09:57:00
5:58 AM,55.4,55.4,100,30.29,1.0,NNW,1.2,-,N/A,,Clear,330,2013-08-18 09:58:00
6:00 AM,55.4,55.4,100,30.27,1.2,Calm,Calm,-,N/A,,Clear,0,2013-08-18 10:00:00
6:02 AM,55.4,55.4,100,30.27,1.5,Calm,Calm,-,N/A,,Clear,0,2013-08-18 10:02:00
6:03 AM,55.4,55.4,100,30.27,2.0,Calm,Calm,-,N/A,,Clear,0,2013-08-18 10:03:00
6:04 AM,55.4,55.4,100,30.28,2.5,Calm,Calm,-,N/A,,Clear,0,2013-08-18 10:04:00
6:06 AM,55.4,55.4,100,30.28,3.0,Calm,Calm,-,N/A,,Clear,0,2013-08-18 10:06:00
6:18 AM,55.4,55.4,100,30.27,1.2,NE,2.3,-,N/A,,Clear,50,2013-08-18 10:18:00
6:19 AM,55.4,55.4,100,30.27,1.0,NE,2.3,-,N/A,,Clear,50,2013-08-18 10:19:00
6:20 AM,55.4,55.4,100,30.27,0.8,ENE,2.3,-,N/A,,Clear,60,2013-08-18 10:20:00
6:21 AM,55.4,55.4,100,30.27,0.5,ENE,2.3,-,N/A,Fog,Fog,60,2013-08-18 10:21:00
6:25 AM,55.4,53.6,94,30.28,0.5,NE,2.3,-,N/A,Fog,Fog,40,2013-08-18 10:25:00
6:26 AM,53.6,53.6,100,30.28,0.5,NE,2.3,-,N/A,Fog,Fog,40,2013-08-18 10:26:00
6:28 AM,55.4,53.6,94,30.28,0.5,NNE,2.3,-,N/A,Fog,Fog,30,2013-08-18 10:28:00
6:29 AM,55.4,53.6,94,30.27,0.5,NE,2.3,-,N/A,Fog,Fog,40,2013-08-18 10:29:00
6:30 AM,55.4,53.6,94,30.27,0.5,NE,2.3,-,N/A,Fog,Fog,40,2013-08-18 10:30:00
6:31 AM,55.4,53.6,94,30.27,0.8,NE,3.5,-,N/A,,Clear,40,2013-08-18 10:31:00
6:39 AM,53.6,53.6,100,30.27,1.0,NE,3.5,-,N/A,,Clear,40,2013-08-18 10:39:00
6:41 AM,55.4,53.6,94,30.28,1.2,NE,3.5,-,N/A,,Clear,40,2013-08-18 10:41:00
6:42 AM,55.4,53.6,94,30.28,2.0,NE,3.5,-,N/A,,Clear,40,2013-08-18 10:42:00
6:43 AM,55.4,55.4,100,30.28,4.0,NE,3.5,-,N/A,,Clear,40,2013-08-18 10:43:00
6:58 AM,56.1,55.9,99,30.30,10.0,NNE,3.5,-,N/A,,Clear,30,2013-08-18 10:58:00
7:58 AM,59.4,59.0,99,30.30,10.0,Calm,Calm,-,N/A,,Clear,0,2013-08-18 11:58:00
8:58 AM,63.0,62.6,99,30.30,10.0,NNE,1.2,-,N/A,,Clear,20,2013-08-18 12:58:00
9:20 AM,64.4,64.4,100,30.27,10.0,NE,2.3,-,N/A,Rain,Light Rain,50,2013-08-18 13:20:00
9:38 AM,66.2,64.4,94,30.27,10.0,North,3.5,-,N/A,,Mostly Cloudy,360,2013-08-18 13:38:00
9:58 AM,67.8,63.9,87,30.30,10.0,Calm,Calm,-,N/A,,Overcast,0,2013-08-18 13:58:00
10:58 AM,70.5,62.4,75,30.28,10.0,North,2.3,-,N/A,,Overcast,360,2013-08-18 14:58:00
11:58 AM,72.0,63.3,74,30.28,10.0,West,1.2,-,N/A,,Overcast,270,2013-08-18 15:58:00
12:58 PM,74.8,63.1,67,30.26,10.0,Variable,2.3,-,N/A,,Overcast,0,2013-08-18 16:58:00
1:58 PM,75.9,62.4,63,30.24,10.0,SSW,2.3,-,N/A,,Overcast,210,2013-08-18 17:58:00
2:58 PM,77.0,62.1,60,30.22,10.0,Variable,2.3,-,N/A,,Mostly Cloudy,0,2013-08-18 18:58:00
3:58 PM,76.1,60.8,59,30.18,10.0,South,4.6,-,N/A,,Overcast,190,2013-08-18 19:58:00
4:58 PM,75.2,61.0,61,30.17,10.0,South,4.6,-,N/A,,Overcast,190,2013-08-18 20:58:00
5:58 PM,74.3,62.2,66,30.16,10.0,South,4.6,-,N/A,,Overcast,190,2013-08-18 21:58:00
6:58 PM,72.1,66.7,83,30.15,10.0,South,2.3,-,N/A,,Overcast,180,2013-08-18 22:58:00
7:58 PM,68.9,64.0,84,30.16,10.0,South,4.6,-,N/A,,Mostly Cloudy,170,2013-08-18 23:58:00
8:58 PM,66.6,64.6,93,30.15,10.0,South,5.8,-,N/A,,Clear,170,2013-08-19 00:58:00
9:58 PM,66.4,64.4,93,30.14,10.0,SSE,2.3,-,N/A,,Clear,150,2013-08-19 01:58:00
10:58 PM,64.9,64.0,97,30.13,10.0,SSE,4.6,-,N/A,,Clear,160,2013-08-19 02:58:00
11:58 PM,63.7,63.1,98,30.12,10.0,SSE,3.5,-,N/A,,Clear,160,2013-08-19 03:58:00